Simultaneous Nadir Overpasses (SNOs) Predictions

Prediction of SNOs between METOP-A and TERRA Satellite Orbit:

Table of predicted SNOs for the next 14.0 days since TLE Epoch: 9/11/2021
Index Date (METOP-A) Time (METOP-A) Lat,Lon (METOP-A) SZA (METOP-A ) Date (TERRA) Time (TERRA) Lat,Lon (TERRA) SZA (TERRA ) Distance(km) Time Diff (sec)
1 09/13/2021 22:52:14 81.28,-118.33 80.50 09/13/2021 22:53:13 81.28,-118.19 80.54 2.39 59
2 09/13/2021 23:42:54 -81.26, 49.31 99.47 09/13/2021 23:42:40 -81.27, 49.37 99.46 1.42 14
3 09/16/2021 18:26:34 81.27, -51.88 81.60 09/16/2021 18:27:26 81.27, -51.91 81.62 0.74 52
4 09/16/2021 19:17:14 -81.26, 115.78 98.36 09/16/2021 19:16:53 -81.26, 115.68 98.38 1.83 21
5 09/19/2021 14:00:54 81.27, 14.55 82.71 09/19/2021 14:01:38 81.28, 14.70 82.76 2.72 44
6 09/19/2021 14:51:35 -81.27,-178.14 97.28 09/19/2021 14:51:06 -81.25,-178.06 97.30 2.19 29
7 09/22/2021 09:35:13 81.27, 80.96 83.83 09/22/2021 09:35:50 81.26, 80.89 83.83 1.28 37



Historial Predications of SNOs between METOP-A and TERRA
